This demonstration page uses our WeatherBlox Daily Observations layout. Learn more.

Left ArrowRight Arrow

39.51506, -84.39828

Hourly Observations for December 4, 2018

Temp ( °F °C ) Dew Point ( °F °C ) Humidity (%) Winds ( mph kmh ) Pressure ( in mb ) Visibility ( mi km ) Precip ( " mm )
12:15 am 00:15 Cloudy 35 1.4 33 0.3 92 92 N 6 9 30.15 1021 10 16 N/A
12:35 am 00:35 Cloudy 34 1.3 32 0.1 92 92 N 7 11 30.15 1021 10 16 N/A
12:55 am 00:55 Cloudy 34 1.2 32 undefined 92 92 NNW 5 7 30.15 1021 10 16 N/A
1:15 am 01:15 Cloudy 34 1.2 32 undefined 92 92 NNW 5 7 30.15 1021 10 16 N/A
1:35 am 01:35 Cloudy 34 1.2 32 -0.1 91 91 N N/A 30.15 1021 10 16 N/A
1:55 am 01:55 Cloudy 34 1.1 32 -0.1 92 92 NNW 3 6 30.15 1021 10 16 N/A
2:15 am 02:15 Cloudy 34 1.1 32 -0.1 92 92 N N/A 30.15 1021 10 16 N/A
2:35 am 02:35 Cloudy 34 1.2 32 -0.1 91 91 NNW 3 6 30.15 1021 10 16 N/A
2:55 am 02:55 Cloudy 34 1.3 32 -0.1 91 91 N N/A 30.15 1021 10 16 N/A
3:15 am 03:15 Cloudy 34 1.3 32 -0.1 91 91 NW 3 6 30.18 1022 10 16 N/A
3:35 am 03:35 Cloudy 34 1.3 32 -0.2 90 90 NNW 6 9 30.18 1022 10 16 N/A
3:55 am 03:55 Cloudy 34 1.2 31 -0.3 90 90 NNW 6 9 30.18 1022 10 16 N/A
4:15 am 04:15 Cloudy 34 1 32 -0.2 92 92 N 3 6 30.18 1022 10 16 N/A
4:35 am 04:35 Cloudy 34 1.1 32 -0.2 91 91 NNW 5 7 30.18 1022 10 16 N/A
4:55 am 04:55 Cloudy 34 0.9 31 -0.3 92 92 NNW 3 6 30.18 1022 10 16 N/A
5:15 am 05:15 Cloudy 34 0.9 31 -0.4 91 91 N 5 7 30.18 1022 10 16 N/A
5:35 am 05:35 Cloudy 34 0.9 31 -0.3 92 92 N 5 7 30.18 1022 10 16 N/A
5:55 am 05:55 Cloudy 33 0.8 31 -0.4 92 92 N 5 7 30.18 1022 10 16 N/A
6:10 am 06:10 Cloudy 34 0.9 31 -0.3 92 92 N 5 7 30.18 1022 10 16 N/A
6:35 am 06:35 Cloudy 34 0.9 31 -0.4 91 91 N 5 7 30.21 1023 10 16 N/A
6:55 am 06:55 Cloudy with Mist and Fog 33 0.5 30 -1.3 88 88 N 7 11 30.21 1023 5 8 N/A
7:15 am 07:15 Cloudy 33 0.7 29 -1.4 86 86 N 5 7 30.21 1023 10 16 N/A
7:35 am 07:35 Cloudy 33 0.7 29 -1.5 85 85 N 3 6 30.21 1023 10 16 N/A
7:55 am 07:55 Cloudy 33 0.7 29 -1.7 84 84 N 3 6 30.21 1023 10 16 N/A
8:15 am 08:15 Cloudy 33 0.7 29 -1.8 84 84 N 3 6 30.21 1023 10 16 N/A
8:35 am 08:35 Cloudy 33 0.8 29 -1.4 85 85 N 3 6 30.21 1023 10 16 N/A
8:55 am 08:55 Cloudy 34 0.9 29 -1.7 83 83 N 3 6 30.21 1023 10 16 N/A
9:15 am 09:15 Cloudy 34 1 29 -1.6 83 83 N 3 6 30.24 1024 10 16 N/A
9:35 am 09:35 Cloudy 34 1.2 29 -1.6 82 82 N 7 11 30.24 1024 10 16 N/A
9:55 am 09:55 Cloudy 34 1.3 29 -1.5 82 82 N 6 9 30.24 1024 10 16 N/A
10:15 am 10:15 Cloudy 35 1.4 29 -1.5 81 81 N 6 9 30.24 1024 10 16 N/A
10:35 am 10:35 Cloudy 35 1.4 29 -1.7 80 80 NNE 3 6 30.24 1024 10 16 N/A
10:55 am 10:55 Cloudy 35 1.6 29 -1.6 80 80 N 6 9 30.24 1024 10 16 N/A
11:15 am 11:15 Cloudy 35 1.5 28 -2 78 78 NNW 6 9 30.21 1023 10 16 N/A
11:35 am 11:35 Cloudy 35 1.7 28 -2.2 76 76 NNW 7 11 30.21 1023 10 16 N/A
11:55 am 11:55 Cloudy 35 1.9 26 -3.3 69 69 WNW 8 13 30.21 1023 10 16 N/A
12:15 pm 12:15 Cloudy 35 1.9 26 -3.1 70 70 NW 7 11 30.18 1022 10 16 N/A
12:35 pm 12:35 Cloudy 35 1.8 26 -3.3 69 69 NNW 7 11 30.18 1022 10 16 N/A
12:55 pm 12:55 Cloudy 35 1.7 26 -3.5 69 69 NW 5 7 30.18 1022 10 16 N/A
1:15 pm 13:15 Cloudy 35 1.7 25 -4.1 66 66 NW 7 11 30.18 1022 10 16 N/A
1:35 pm 13:35 Cloudy 35 1.8 26 -3.6 68 68 WNW 7 11 30.18 1022 10 16 N/A
1:55 pm 13:55 Cloudy 35 1.5 25 -3.9 68 68 WNW 8 13 30.18 1022 10 16 N/A
2:15 pm 14:15 Cloudy 35 1.5 26 -3.4 70 70 WNW 7 11 30.18 1022 10 16 N/A
2:35 pm 14:35 Cloudy 35 1.5 26 -3.4 70 70 NW 7 11 30.18 1022 10 16 N/A
2:55 pm 14:55 Cloudy 34 1.3 26 -3.4 71 71 WNW 7 11 30.15 1021 10 16 N/A
3:15 pm 15:15 Cloudy 34 1.2 26 -3.4 72 72 NW 8 13 30.18 1022 10 16 N/A
3:35 pm 15:35 Cloudy 34 1 26 -3.4 73 73 NW 9 15 30.18 1022 10 16 N/A
3:55 pm 15:55 Cloudy 33 0.7 26 -3.3 75 75 WNW 8 13 30.18 1022 10 16 N/A
4:15 pm 16:15 Cloudy 33 0.6 26 -3.6 74 74 WNW 6 9 30.18 1022 10 16 N/A
4:35 pm 16:35 Cloudy 33 0.5 26 -3.5 75 75 WNW 6 9 30.18 1022 10 16 N/A
4:55 pm 16:55 Cloudy 33 0.4 26 -3.6 75 75 NW 5 7 30.18 1022 10 16 N/A
5:15 pm 17:15 Cloudy 33 0.3 26 -3.6 75 75 NW 3 6 30.18 1022 10 16 N/A
5:35 pm 17:35 Cloudy 32 0.2 26 -3.6 76 76 N N/A 30.18 1022 10 16 N/A
5:55 pm 17:55 Cloudy 32 0.1 26 -3.3 78 78 N N/A 30.18 1022 10 16 N/A
6:15 pm 18:15 Cloudy 32 0.2 26 -3.5 76 76 WSW 3 6 30.18 1022 10 16 N/A
6:35 pm 18:35 Cloudy 33 0.3 25 -3.9 74 74 SW 6 9 30.18 1022 10 16 N/A
6:55 pm 18:55 Cloudy 32 0.2 25 -3.9 74 74 WSW 5 7 30.18 1022 10 16 N/A
7:15 pm 19:15 Cloudy 32 0.1 25 -4 74 74 W 5 7 30.18 1022 10 16 N/A
7:35 pm 19:35 Cloudy 32 undefined 25 -3.9 75 75 N N/A 30.18 1022 10 16 N/A
7:55 pm 19:55 Cloudy 32 undefined 25 -3.7 76 76 W 3 6 30.18 1022 10 16 N/A
8:15 pm 20:15 Cloudy 32 0.1 25 -3.8 75 75 W 5 7 30.18 1022 10 16 N/A
8:35 pm 20:35 Cloudy 32 undefined 25 -3.7 76 76 WSW 6 9 30.18 1022 10 16 N/A
8:55 pm 20:55 Cloudy 32 -0.1 26 -3.4 79 79 W 5 7 30.18 1022 10 16 N/A
9:15 pm 21:15 Cloudy with Light Rain 32 -0.2 26 -3.3 80 80 W 5 7 30.18 1022 10 16 N/A
9:35 pm 21:35 Cloudy with Light Rain 32 -0.2 26 -3.1 81 81 WSW 3 6 30.18 1022 10 16 N/A
9:55 pm 21:55 Cloudy 32 -0.2 26 -3.1 81 81 WSW 3 6 30.15 1021 10 16 N/A
10:15 pm 22:15 Cloudy 32 -0.2 26 -3.1 81 81 WSW 3 6 30.15 1021 10 16 N/A
10:35 pm 22:35 Cloudy 32 -0.2 27 -3 82 82 WSW 3 6 30.15 1021 10 16 N/A
10:55 pm 22:55 Cloudy 32 -0.2 27 -2.9 82 82 SW 5 7 30.15 1021 10 16 N/A
11:15 pm 23:15 Cloudy 31 -0.3 27 -2.7 84 84 SW 3 6 30.15 1021 10 16 N/A
11:35 pm 23:35 Cloudy 31 -0.3 27 -2.6 85 85 SW 3 6 30.15 1021 10 16 N/A
11:55 pm 23:55 Cloudy 31 -0.3 27 -2.6 85 85 SW 5 7 30.15 1021 10 16 N/A

Powered by AerisWeather